Flag for Germany Weather past 2 weeks in Limburg an der Lahn, Hesse, Germany

Now
54 °F

Clear.


Feels Like: 54 °F
Forecast: 46 / 74 °F
Wind: No wind

Location: Wiesbaden Airport

Current Time: Jun 3, 2015 at 5:50:37 AM

Latest Report: Jun 3, 2015 at 4:58 AM


Visibility: N/A

Pressure: 30.05 "Hg

Humidity: 88%

Dew point: 50 °F

Location of Limburg an der LahnLocation

Historic Weather in Limburg an der Lahn — Graph

°F

Limburg an der Lahn temperature yesterday

Maximum temperature yesterday: 77 °F (at 5:58 PM)
Minimum temperature yesterday: 46 °F (at 1:58 AM)
Average temperature yesterday: 61 °F

Past Weeks' High & Low Weather Summary

 TemperatureHumidityPressure
High77 °F (Jun 2, 5:58 PM)100% (Jun 1, 9:03 AM)30.34 "Hg (Jun 1, 9:03 AM)
Low39 °F (May 28, 2:58 AM)34% (May 30, 4:58 PM)29.70 "Hg (May 19, 4:02 AM)
Average57 °F66%30.04 "Hg
* Reported May 19 4:02 AM — Jun 3 3:58 AM, Limburg an der Lahn, Weather by CustomWeather, © 2015

Note: Actual official high and low records may vary slightly from our data, if they occured in-between our weather recording intervals... More about our weather records

Advertising

Limburg an der Lahn weather history for previous 24 hours

 ConditionsComfort  
Time TempWeatherWind HumidityBarometerVisibility
3:58 AM
Wed, Jun 3
53 °FClear.3 mph88%30.05 "HgN/A
2:58 AM55 °FClear.3 mph82%30.04 "HgN/A
1:58 AM59 °FClear.2 mph72%30.03 "HgN/A
12:58 AM61 °FClear.1 mph63%30.03 "HgN/A
11:58 PM
Tue, Jun 2
64 °FClear.1 mph61%30.03 "HgN/A
10:58 PM64 °FClear.No wind60%30.02 "HgN/A
9:58 PM66 °FSunny.6 mph53%30.01 "HgN/A
8:58 PM73 °FSunny.10 mph40%29.98 "HgN/A
7:58 PM75 °FSunny.20 mph36%29.97 "HgN/A
6:58 PM77 °FSunny.22 mph34%29.97 "HgN/A
5:58 PM77 °FSunny.21 mph36%29.98 "HgN/A
4:58 PM77 °FSunny.17 mph40%29.99 "HgN/A
3:58 PM75 °FPassing clouds.20 mph40%29.98 "HgN/A
3:03 PM73 °FPartly sunny.16 mph41%29.99 "HgN/A
1:59 PM73 °FScattered clouds.18 mph41%30.00 "HgN/A
12:58 PM67 °FBroken clouds.16 mph53%30.00 "HgN/A
11:58 AM65 °FOvercast.15 mph58%30.01 "HgN/A
10:58 AM62 °FScattered clouds.9 mph81%30.01 "HgN/A
9:58 AM57 °FDrizzle. Partly sunny.1 mph94%30.02 "HgN/A
8:58 AM55 °FLight rain. Passing clouds.2 mph92%30.03 "HgN/A
8:00 AM54 °FLight rain. Scattered clouds.2 mph88%30.01 "HgN/A
6:58 AM50 °FScattered clouds.No wind100%30.01 "HgN/A
6:04 AM48 °FMostly cloudy.1 mph94%30.00 "HgN/A
Weather by CustomWeather, © 2015

See weather overviewHow to use our weather pages